User: anonymous   Login
Location: Ahausen
(50.4985°N, 8.2722°E)
Time: 05:41:04
(UTC+00:00)
Language:

NOAA 15 - Orbit

View from above orbital plane
View from above orbital plane
View from above satellite
View from above satellite

Ground track
Ground track

The orbit data is extracted from the following two-line orbital elements,

1 25338U 98030A   22178.73325718  .00000142  00000-0  77468-4 0  9990
2 25338  98.6429 208.1342 0009146 267.2002  92.8132 14.26143432254736
Epoch (UTC): 27 June 2022 17:35:53
Eccentricity: 0.0009146
inclination: 98.6429°
perigee height: 798 km
apogee height: 811 km
right ascension of ascending node: 208.1342°
argument of perigee: 267.2002°
revolutions per day: 14.26143432
mean anomaly at epoch: 92.8132°
orbit number at epoch: 25473

The dashed part of the orbit path shows where the satellite is in the earth's shadow,  

DLR